This demonstration page uses our WeatherBlox Daily Observations layout. Learn more.

Left ArrowRight Arrow

53.62937, 11.41316

Hourly Observations for November 25, 2021

Temp ( °F °C ) Dew Point ( °F °C ) Humidity (%) Winds ( mph kmh ) Pressure ( in mb ) Visibility ( mi km ) Precip ( " mm )
12:20 am 00:20 Cloudy 43 6 37 3 81 81 undefined N/A 29.95 1014 30 48 N/A
12:50 am 00:50 Cloudy 41 5 36 2 81 81 undefined N/A 29.95 1014 30 48 N/A
1:20 am 01:20 Cloudy 41 5 36 2 81 81 undefined N/A 29.95 1014 30 48 N/A
1:50 am 01:50 Cloudy 41 5 36 2 81 81 undefined N/A 29.92 1013 30 48 N/A
2:20 am 02:20 Cloudy 41 5 36 2 81 81 undefined N/A 29.92 1013 30 48 N/A
2:50 am 02:50 Cloudy 41 5 36 2 81 81 undefined N/A 29.89 1012 30 48 N/A
3:20 am 03:20 Cloudy 41 5 36 2 81 81 undefined N/A 29.89 1012 30 48 N/A
3:50 am 03:50 Cloudy 41 5 36 2 81 81 undefined N/A 29.86 1011 30 48 N/A
4:20 am 04:20 Cloudy 41 5 36 2 81 81 undefined N/A 29.86 1011 30 48 N/A
4:50 am 04:50 Cloudy 41 5 36 2 81 81 undefined N/A 29.86 1011 30 48 N/A
5:20 am 05:20 Cloudy 41 5 36 2 81 81 undefined N/A 29.83 1010 30 48 N/A
5:50 am 05:50 Cloudy 41 5 36 2 81 81 undefined N/A 29.83 1010 30 48 N/A
6:20 am 06:20 Mostly Clear 41 5 36 2 81 81 S 6 9 29.83 1010 7 11 N/A
6:50 am 06:50 Mostly Clear 41 5 36 2 81 81 SSW 5 7 29.83 1010 7 11 N/A
7:20 am 07:20 Mostly Clear 41 5 34 1 76 76 SW 3 6 29.80 1009 7 11 N/A
7:50 am 07:50 Mostly Clear 39 4 36 2 87 87 S 5 7 29.80 1009 7 11 N/A
8:20 am 08:20 Mostly Sunny 39 4 34 1 81 81 SSW 5 7 29.77 1008 30 48 N/A
8:50 am 08:50 Mostly Sunny 41 5 34 1 76 76 VRB 3 6 29.77 1008 7 11 N/A
9:20 am 09:20 Mostly Sunny 41 5 34 1 76 76 VRB 3 6 29.77 1008 30 48 N/A
9:50 am 09:50 Mostly Sunny 41 5 34 1 76 76 VRB 5 7 29.77 1008 30 48 N/A
10:20 am 10:20 Partly Cloudy 43 6 34 1 71 71 SW 6 9 29.74 1007 30 48 N/A
10:50 am 10:50 Mostly Cloudy with Light Rain 43 6 36 2 76 76 SW 6 9 29.74 1007 30 48 N/A
11:20 am 11:20 Cloudy with Light Rain 43 6 36 2 76 76 VRB 6 9 29.71 1006 30 48 N/A
11:50 am 11:50 Cloudy with Light Rain 43 6 36 2 76 76 SW 6 9 29.71 1006 30 48 N/A
12:20 pm 12:20 Cloudy 43 6 37 3 81 81 SW 7 11 29.71 1006 30 48 N/A
12:50 pm 12:50 Cloudy with Light Rain 43 6 39 4 87 87 SW 7 11 29.71 1006 30 48 N/A
1:20 pm 13:20 Cloudy with Light Rain 43 6 39 4 87 87 WSW 10 17 29.68 1005 6 9 N/A
1:50 pm 13:50 Cloudy with Light Rain 43 6 41 5 93 93 WSW 9 15 29.68 1005 2 4 N/A
2:20 pm 14:20 Mostly Cloudy with Drizzle 43 6 41 5 93 93 WSW 8 13 29.68 1005 4 6 N/A
2:50 pm 14:50 Cloudy with Drizzle 43 6 41 5 93 93 WSW 9 15 29.65 1004 5 8 N/A
3:20 pm 15:20 Cloudy with Drizzle 43 6 41 5 93 93 WSW 9 15 29.65 1004 4 7 N/A
3:50 pm 15:50 Mostly Cloudy 43 6 41 5 93 93 WSW 8 13 29.65 1004 6 9 N/A
4:20 pm 16:20 Mostly Cloudy with Light Rain 43 6 41 5 93 93 WSW 7 11 29.65 1004 5 8 N/A
4:50 pm 16:50 Mostly Cloudy 43 6 41 5 93 93 WSW 8 13 29.65 1004 30 48 N/A
5:20 pm 17:20 Mostly Cloudy 43 6 39 4 87 87 WSW 9 15 29.65 1004 30 48 N/A
5:50 pm 17:50 Partly Cloudy with Light Rain 43 6 39 4 87 87 WSW 9 15 29.65 1004 30 48 N/A
6:20 pm 18:20 Mostly Clear 41 5 39 4 93 93 WSW 7 11 29.65 1004 7 11 N/A
6:50 pm 18:50 Mostly Clear 41 5 39 4 93 93 WSW 7 11 29.65 1004 7 11 N/A
7:20 pm 19:20 Mostly Clear 41 5 37 3 87 87 WSW 7 11 29.62 1003 30 48 N/A
7:50 pm 19:50 Mostly Clear 41 5 37 3 87 87 WSW 8 13 29.62 1003 30 48 N/A
8:20 pm 20:20 Mostly Clear 39 4 37 3 93 93 WSW 8 13 29.62 1003 7 11 N/A
8:50 pm 20:50 Mostly Clear 41 5 37 3 87 87 WSW 9 15 29.65 1004 30 48 N/A
9:20 pm 21:20 Mostly Cloudy 39 4 36 2 87 87 WSW 8 13 29.62 1003 30 48 N/A
9:50 pm 21:50 Mostly Clear 39 4 36 2 87 87 WSW 10 17 29.62 1003 30 48 N/A
10:20 pm 22:20 Mostly Clear 39 4 36 2 87 87 WSW 8 13 29.62 1003 30 48 N/A
10:50 pm 22:50 Mostly Clear 37 3 36 2 93 93 SW 6 9 29.62 1003 30 48 N/A
11:20 pm 23:20 Mostly Clear 37 3 36 2 93 93 SW 5 7 29.62 1003 30 48 N/A
11:50 pm 23:50 Mostly Clear 37 3 36 2 93 93 VRB 6 9 29.62 1003 30 48 N/A

Powered by AerisWeather